This is the latest recevied weather packets stored in our database for station/object KB0Y. If no packets are shown the sender has not sent any weather packets the latest 10 day(s).
| Time | Temp. | Humidity | Pressure | Rain* | Wind** | Luminosity | Snow |
|---|---|---|---|---|---|---|---|
| 1778115600 | 25.56° C | 77% | 1018.9 hPa | 0 mm | - | 0 W/m² | - |
| 1778115297 | 25.56° C | 77% | 1018.6 hPa | 0 mm | - | 0 W/m² | - |
| 1778114993 | 25.56° C | 76% | 1018.6 hPa | 0 mm | - | 0 W/m² | - |
| 1778114691 | 25.56° C | 75% | 1018.6 hPa | 0 mm | - | 0 W/m² | - |
| 1778114388 | 26.11° C | 74% | 1018.6 hPa | 0 mm | - | 0 W/m² | - |
| 1778114083 | 26.11° C | 74% | 1018.9 hPa | 0 mm | - | 0 W/m² | - |
| 1778113779 | 26.67° C | 72% | 1018.9 hPa | 0 mm | - | 0 W/m² | - |
| 1778113475 | 26.67° C | 71% | 1018.9 hPa | 0 mm | - | 0 W/m² | - |
| 1778113172 | 26.67° C | 71% | 1018.9 hPa | 0 mm | - | 0 W/m² | - |
| 1778112868 | 27.22° C | 70% | 1018.9 hPa | 0 mm | - | 0 W/m² | - |
| 1778112566 | 27.22° C | 69% | 1018.9 hPa | 0 mm | - | 2 W/m² | - |
| 1778112261 | 27.22° C | 68% | 1018.6 hPa | 0 mm | - | 9 W/m² | - |
| 1778111957 | 27.78° C | 67% | 1018.6 hPa | 0 mm | - | 20 W/m² | - |
| 1778111655 | 27.78° C | 67% | 1018.6 hPa | 0 mm | - | 30 W/m² | - |
| 1778111350 | 27.78° C | 66% | 1018.6 hPa | 0 mm | - | 36 W/m² | - |
| 1778111049 | 28.33° C | 66% | 1018.3 hPa | 0 mm | - | 44 W/m² | - |
| 1778110746 | 28.33° C | 65% | 1018.3 hPa | 0 mm | - | 51 W/m² | - |
| 1778110441 | 28.33° C | 64% | 1018.3 hPa | 0 mm | - | 57 W/m² | - |
| 1778110139 | 28.89° C | 64% | 1018.3 hPa | 0 mm | - | 63 W/m² | - |
| 1778109834 | 28.89° C | 63% | 1017.9 hPa | 0 mm | - | 72 W/m² | - |
| 1778109531 | 29.44° C | 63% | 1018.3 hPa | 0 mm | - | 85 W/m² | - |
| 1778109229 | 29.44° C | 62% | 1018.3 hPa | 0 mm | - | 94 W/m² | - |
| 1778108926 | 30° C | 62% | 1018.3 hPa | 0 mm | - | 158 W/m² | - |
| 1778108622 | 30° C | 61% | 1018.3 hPa | 0 mm | - | 187 W/m² | - |
| 1778108318 | 30° C | 61% | 1018.3 hPa | 0 mm | - | 277 W/m² | - |
* Rain latest hour (hover to see other rain measurements)
** Current wind speed in m/s (hover to see current wind gust speed)